Regional Weather Roundup
Issued by NWS Upton, NY

Current Version | Previous Version | Text Only | Print | Product List | Glossary On
Versions: 1 2 3 4 5 6 7 8 9 10 11 12 13 14 15 16 17 18 19 20 21 22 23 24 25 26 27 28 29 30 31 32 33 34 35 36 37 38 39 40 41 42 43 44 45 46 47 48 49 50
000 ASUS41 KOKX 201908 RWROKX REGIONAL WEATHER ROUNDUP NATIONAL WEATHER SERVICE NEW YORK NY 300 PM EDT SUN AUG 20 2017 NOTE: "FAIR" INDICATES FEW OR NO CLOUDS BELOW 12,000 FEET WITH NO SIGNIFICANT WEATHER AND/OR OBSTRUCTIONS TO VISIBILITY. NYZ071-072-176-178-NJZ106-104-202000- NEW YORK CITY METRO AREA CITY SKY/WX TMP DP RH WIND PRES REMARKS Central Park MOSUNNY 80 59 48 CALM 30.10S Bronx Bot Gard N/A 81 57 44 NW6 30.08F LaGuardia APRT PTSUNNY 82 60 47 NW9 30.06S Kennedy INTL MOSUNNY 84 60 44 NW14G23 30.07S Breezy Point N/A 81 N/A N/A W7G13 N/A Newark/Liberty PTSUNNY 83 58 42 NW13G21 30.07F Teterboro MOSUNNY 82 61 48 NW10 30.06S $$ NYZ177-179-078>081-202000- LONG ISLAND NEW YORK CITY SKY/WX TMP DP RH WIND PRES REMARKS Jones Beach N/A 81 N/A N/A NW12 N/A Matinecock PT N/A 77 N/A N/A W13 N/A Farmingdale MOSUNNY 82 59 45 NW12 30.06S MacArthur/ISP MOSUNNY 82 61 48 NW14 30.05S Shirley MOSUNNY 83 62 49 NW15G22 30.05F Mt Sinai Harb N/A 81 N/A N/A W7G13 N/A Westhampton MOSUNNY 82 58 43 NW12G22 30.06S East Hampton FAIR 79 62 55 W12 30.03S Montauk N/A 80 64 58 W9G16 30.04R $$ NYZ052-065-067-202000- HUDSON VALLEY CITY SKY/WX TMP DP RH WIND PRES REMARKS White Plains MOSUNNY 79 58 48 NW12 30.07S Larchmont Harb N/A 77 N/A N/A W13 N/A Croton On Huds N/A 79 N/A N/A W8 N/A Newburgh MOSUNNY 77 61 57 W12 30.08F Montgomery SUNNY 81 59 47 N9 30.06F Poughkeepsie MOSUNNY 80 57 45 W8 30.05F Albany MOSUNNY 80 59 48 NW9 30.06F $$ NJZ001-105-106-008-010-013-015-019>022-104-202000- NEW JERSEY CITY SKY/WX TMP DP RH WIND PRES REMARKS Newark/Liberty PTSUNNY 83 58 42 NW13G21 30.07F Teterboro MOSUNNY 82 61 48 NW10 30.06S Caldwell MOSUNNY 81 60 48 NW8 30.08F Somerville SUNNY 83 60 45 VRB5 30.07F Linden FAIR 82 59 46 NW9G17 30.08S Perth Amboy N/A 79 N/A N/A W10G16 N/A Sussex SUNNY 80 61 52 N8 30.09F Andover N/A 80 60 50 CALM 30.10F Trenton SUNNY 82 60 47 NW6 30.09F Millville SUNNY 86 66 51 VRB7 30.10F Atlantic City SUNNY 85 61 44 NW10G20 30.09F Wrightstown SUNNY 83 62 49 NW10 30.06F Toms River SUNNY 84 61 45 W8 30.09F Belmar SUNNY 82 61 48 W13 30.09F $$ PAZ047>061-062-071-202000- EASTERN PENNSYLVANIA CITY SKY/WX TMP DP RH WIND PRES REMARKS Philadelphia MOSUNNY 84 55 36 NW8G17 30.10F Allentown SUNNY 83 60 45 VRB7 30.10F Scranton MOSUNNY 80 61 52 VRB7 30.13F $$ CTZ002-004>006-009-010-012-RIZ004-006-007-MAZ004-011-015-202000- SOUTHERN NEW ENGLAND IN CT CITY SKY/WX TMP DP RH WIND PRES REMARKS Bradley INTL MOSUNNY 83 57 41 NW9 30.03S Hartford MOSUNNY 81 58 45 NW10 30.02S Danbury MOSUNNY 80 58 46 NW10G18 30.08S Wtrbury/Oxford PTSUNNY 76 60 57 NW8 30.08S Norwalk Harbor N/A 77 N/A N/A NW9 N/A Bridgeport MOSUNNY 82 59 45 NW13G20 30.04S Meriden MOSUNNY 81 59 47 W9 30.04S New Haven PTSUNNY 80 57 45 NW12G17 30.04S Chester MOCLDY 81 59 47 NW10 30.04F Groton PTSUNNY 83 60 45 W14G22 30.01S Wilimantic MOSUNNY 81 59 47 W12G21 30.02S IN RI CITY SKY/WX TMP DP RH WIND PRES REMARKS Providence PTSUNNY 83 60 45 W14 30.00S Block Island SUNNY 77 64 64 W12 30.02S Westerly PTSUNNY 84 60 44 NW8 30.01S IN MA CITY SKY/WX TMP DP RH WIND PRES REMARKS Boston PTSUNNY 82 57 42 NW13 29.97R Worcester MOSUNNY 79 54 41 NW10 30.03S Westfield MOSUNNY 82 57 42 W12 30.02S Provincetown SUNNY 79 63 57 NW7 29.97F Nantucket SUNNY 78 66 66 W15 29.98S $$ ANZ330-335-338-340-345-350-353-355-202000- COASTAL MARINE OBSERVATIONS STATION/POSITION TIME SKY/WX TEMP WIND PRES VSBY WAVE AIR SEA DIR/SP/G HT/PER (UTC) (F) (DEG/KT/KT) (MB) (MI) (FT/S) NY HARB ENTRANCE 1750 76 76 270/ 12/ 14 1018.0 2/ 6 GREAT SOUTH BAY 1830 79 80 310/ 10/ 12 N/A 23 SSW MONTAUK P 1750 73 72 1017.6 3/ 5 15 E BARNEGAT LI 1830 78 N/A 2/ 7 HUDSON CANYON 1750 74 74 300/ 12/ 14 1017.6 3/ 5 KINGS POINT 1830 77 75 340/ 11/ 12 1018.0 EXECUTION ROCKS NOT AVBL WESTERN LI SOUND NOT AVBL CENTRAL LI SOUND NOT AVBL EASTERN LI SOUND NOT AVBL ROBBINS REEF 1830 300/ 15/ 19 1018.9 $$ >>>>>>>>>>>>>>>>>>>>>>>>>>>> KEY <<<<<<<<<<<<<<<<<<<<<<<<<<< > < > SKY/WX - Sky Condition/Present Weather < > TMP - Temperature in Fahrenheit < > DP - Dew Point in Fahrenheit < > RH - Relative Humidity in Percent < > WIND - Direction (from) and Speed in MPH < > PRES - Mean Sea Level Pressure (inches of Hg) < > WCI - Wind Chill Index < > VSB - VISIBILITY IN MILES < > HX - HEAT INDEX < > TC - TEMPERATURE IN CELSIUS < > VRB - VARIABLE WIND DIRECTION < > < >>>>>>>>>>>>>>>>>>>>>>>>>>>> KEY <<<<<<<<<<<<<<<<<<<<<<<<<<<

USA.gov is the U.S. government's official web portal to all federal, state and local government web resources and services.